Location: ????????
(55.1591°N, 39.1782°E)
Time: 14:53:24
(UTC+00:00)

Cosmos 1726 - Visible Passes

Search period start: 12 July 2024 00:00
Search period end: 22 July 2024 00:00
Orbit: 374 x 380 km, 82.5° (Epoch: 12 July)

Date Brightness Start Highest point End Pass type
(mag) Time Alt. Az. Time Alt. Az. Time Alt. Az.
14 Jul 4.1 00:02:49 10° SE 00:05:05 20° E 00:07:22 10° NE visible
15 Jul 4.3 23:39:25 10° SE 23:41:25 16° E 23:43:26 10° NE visible
17 Jul 4.3 23:15:40 10° ESE 23:17:17 14° E 23:18:55 10° NE visible
18 Jul 2.7 23:48:16 10° SSE 23:51:06 39° E 23:53:58 10° NNE visible
19 Jul 4.5 22:51:41 10° ESE 22:52:41 11° E 22:53:41 10° ENE visible
20 Jul 3.1 23:23:30 10° SSE 23:26:13 31° E 23:28:56 10° NNE visible
